Location: Camps Bay
(33.9517°S, 18.3844°E)
Time: 16:31:55
(UTC+00:00)

Cosmos 1674 Rocket - Pass Details

Date: 18 January 2020
Orbit: 604 x 629 km, 82.5° (Epoch: 19 February)

Event Time Altitude Azimuth Distance (km) Brightness Sun altitude
Exits shadow 01:27:56 53° 230° (SW) 788 4.0 -24.6°
Drops below altitude 10° 01:31:50 10° 182° (S) 2,038 6.8 -24.0°
Sets 01:34:08 0° 178° (S) 2,953 7.8 -23.7°
